LNI223 WAOO-WARR

Flight info

Callsign LNI223
Flight time 0h 58m
Altitude 36000
Route RITBO
Aircraft B738/M-SDE2E3FGHIRWXY/LB1

Departure

Time 2026-04-27 07:32
Airport Syamsudin Noor International Airport (WAOO)

Arrival

Time 2026-04-27 08:30
Airport Juanda International Airport (WARR)
Time Latitude Longitude Altitude Speed Heading
2026-04-27 07:16 -3.43832 114.75974 70 ft 0 kts 10°
2026-04-27 07:23 -3.43838 114.75973 70 ft 2 kts 10°
2026-04-27 07:24 -3.43853 114.75970 70 ft 2 kts 10°
2026-04-27 07:24 -3.43867 114.75967 70 ft 2 kts 10°
2026-04-27 07:24 -3.43882 114.75965 70 ft 2 kts 10°
2026-04-27 07:24 -3.43897 114.75962 70 ft 2 kts 31°
2026-04-27 07:25 -3.43907 114.75951 70 ft 2 kts 68°
2026-04-27 07:25 -3.43910 114.75939 70 ft 0 kts 96°
2026-04-27 07:25 -3.43908 114.75932 70 ft 1 kts 100°
2026-04-27 07:27 -3.43913 114.75951 70 ft 4 kts 110°
2026-04-27 07:27 -3.43945 114.75974 70 ft 7 kts 174°
2026-04-27 07:27 -3.44007 114.75967 70 ft 10 kts 190°
2026-04-27 07:28 -3.44096 114.75950 70 ft 14 kts 191°
2026-04-27 07:28 -3.44175 114.75967 70 ft 12 kts 128°
2026-04-27 07:28 -3.44195 114.76061 70 ft 15 kts 98°
2026-04-27 07:28 -3.44221 114.76183 70 ft 19 kts 103°
2026-04-27 07:29 -3.44247 114.76331 70 ft 23 kts 99°
2026-04-27 07:29 -3.44278 114.76507 71 ft 27 kts 100°
2026-04-27 07:29 -3.44314 114.76708 71 ft 30 kts 101°
2026-04-27 07:29 -3.44353 114.76916 71 ft 29 kts 101°
2026-04-27 07:30 -3.44391 114.77115 71 ft 28 kts 100°
2026-04-27 07:30 -3.44411 114.77227 71 ft 11 kts 97°
2026-04-27 07:30 -3.44405 114.77313 71 ft 14 kts 81°
2026-04-27 07:30 -3.44426 114.77333 71 ft 5 kts 266°
2026-04-27 07:31 -3.44422 114.77289 71 ft 9 kts 279°
2026-04-27 07:31 -3.44366 114.76985 71 ft 87 kts 281°
2026-04-27 07:31 -3.44205 114.76118 72 ft 162 kts 279°
2026-04-27 07:31 -3.43972 114.74916 566 ft 185 kts 279°
2026-04-27 07:32 -3.43898 114.73609 1462 ft 197 kts 261°
2026-04-27 07:32 -3.44532 114.72403 2264 ft 205 kts 225°
2026-04-27 07:32 -3.45691 114.71530 2901 ft 219 kts 215°
2026-04-27 07:32 -3.47021 114.70636 3455 ft 242 kts 216°
2026-04-27 07:33 -3.48434 114.69634 4264 ft 254 kts 217°
2026-04-27 07:33 -3.49888 114.68568 5011 ft 269 kts 217°
2026-04-27 07:33 -3.51421 114.67436 5895 ft 277 kts 217°
2026-04-27 07:33 -3.52970 114.66291 6828 ft 282 kts 217°
2026-04-27 07:34 -3.54554 114.65122 7722 ft 288 kts 217°
2026-04-27 07:34 -3.56179 114.63924 8591 ft 294 kts 217°
2026-04-27 07:34 -3.57851 114.62692 9444 ft 300 kts 217°
2026-04-27 07:34 -3.59535 114.61455 10310 ft 305 kts 217°
2026-04-27 07:35 -3.61284 114.60171 10878 ft 321 kts 217°
2026-04-27 07:35 -3.63112 114.58826 11436 ft 336 kts 216°
2026-04-27 07:35 -3.65057 114.57395 11979 ft 351 kts 216°
2026-04-27 07:35 -3.67053 114.55928 12613 ft 361 kts 216°
2026-04-27 07:36 -3.69070 114.54446 13416 ft 365 kts 216°
2026-04-27 07:36 -3.71148 114.52917 14209 ft 369 kts 216°
2026-04-27 07:36 -3.73224 114.51389 14927 ft 374 kts 216°
2026-04-27 07:36 -3.75323 114.49841 15641 ft 379 kts 216°
2026-04-27 07:37 -3.77460 114.48266 16300 ft 384 kts 216°
2026-04-27 07:37 -3.79627 114.46668 16919 ft 391 kts 216°
2026-04-27 07:37 -3.81840 114.45038 17567 ft 395 kts 216°
2026-04-27 07:37 -3.84063 114.43401 18212 ft 399 kts 216°
2026-04-27 07:38 -3.86288 114.41760 18900 ft 401 kts 216°
2026-04-27 07:38 -3.88544 114.40097 19512 ft 405 kts 216°
2026-04-27 07:38 -3.90831 114.38412 20097 ft 410 kts 216°
2026-04-27 07:38 -3.93145 114.36709 20693 ft 413 kts 216°
2026-04-27 07:39 -3.95465 114.34998 21304 ft 416 kts 216°
2026-04-27 07:39 -3.97792 114.33282 21848 ft 419 kts 216°
2026-04-27 07:39 -4.00157 114.31538 22382 ft 423 kts 216°
2026-04-27 07:39 -4.02526 114.29791 22981 ft 424 kts 216°
2026-04-27 07:40 -4.04895 114.28043 23535 ft 426 kts 216°
2026-04-27 07:40 -4.07298 114.26269 24081 ft 429 kts 216°
2026-04-27 07:40 -4.09690 114.24504 24570 ft 432 kts 216°
2026-04-27 07:40 -4.12150 114.22689 25109 ft 434 kts 216°
2026-04-27 07:41 -4.14577 114.20896 25589 ft 437 kts 216°
2026-04-27 07:41 -4.17040 114.19078 26128 ft 438 kts 216°
2026-04-27 07:41 -4.19481 114.17275 26580 ft 441 kts 216°
2026-04-27 07:41 -4.21978 114.15431 27066 ft 443 kts 216°
2026-04-27 07:42 -4.24454 114.13602 27559 ft 445 kts 216°
2026-04-27 07:42 -4.26960 114.11752 27992 ft 447 kts 216°
2026-04-27 07:42 -4.29437 114.09923 28460 ft 449 kts 216°
2026-04-27 07:42 -4.31966 114.08055 28887 ft 452 kts 216°
2026-04-27 07:43 -4.34495 114.06186 29281 ft 455 kts 216°
2026-04-27 07:43 -4.37049 114.04300 29714 ft 457 kts 216°
2026-04-27 07:43 -4.39654 114.02375 29981 ft 463 kts 216°
2026-04-27 07:44 -4.44789 113.98579 29991 ft 457 kts 216°
2026-04-27 07:44 -4.49930 113.94778 29991 ft 459 kts 216°
2026-04-27 07:45 -4.55086 113.90966 29992 ft 458 kts 216°
2026-04-27 07:45 -4.60194 113.87188 29992 ft 458 kts 216°
2026-04-27 07:46 -4.65338 113.83384 29993 ft 458 kts 216°
2026-04-27 07:46 -4.70479 113.79582 29993 ft 459 kts 216°
2026-04-27 07:47 -4.75612 113.75785 30002 ft 460 kts 216°
2026-04-27 07:47 -4.80798 113.71945 30007 ft 461 kts 216°
2026-04-27 07:48 -4.85949 113.68132 30009 ft 461 kts 216°
2026-04-27 07:48 -4.91114 113.64310 30010 ft 460 kts 216°
2026-04-27 07:49 -4.96246 113.60510 30008 ft 461 kts 216°
2026-04-27 07:49 -5.01428 113.56670 30004 ft 461 kts 216°
2026-04-27 07:50 -5.06571 113.52859 29996 ft 461 kts 216°
2026-04-27 07:50 -5.11761 113.49014 29992 ft 462 kts 216°
2026-04-27 07:51 -5.16827 113.45258 29989 ft 439 kts 216°
2026-04-27 07:51 -5.19271 113.43443 29991 ft 424 kts 216°
2026-04-27 07:51 -5.21611 113.41706 29994 ft 416 kts 216°
2026-04-27 07:52 -5.26314 113.38219 29993 ft 425 kts 216°
2026-04-27 07:52 -5.31058 113.34701 29992 ft 423 kts 216°
2026-04-27 07:53 -5.35828 113.31163 29993 ft 424 kts 216°
2026-04-27 07:53 -5.40544 113.27665 29993 ft 425 kts 216°
2026-04-27 07:54 -5.45336 113.24110 29992 ft 426 kts 216°
2026-04-27 07:54 -5.50101 113.20573 29990 ft 426 kts 216°
2026-04-27 07:55 -5.54864 113.17041 29990 ft 426 kts 216°
2026-04-27 07:55 -5.59669 113.13474 29991 ft 427 kts 216°
2026-04-27 07:56 -5.64420 113.09944 29991 ft 427 kts 216°
2026-04-27 07:56 -5.69203 113.06390 29991 ft 427 kts 216°
2026-04-27 07:57 -5.73982 113.02841 29989 ft 427 kts 216°
2026-04-27 07:57 -5.78775 112.99281 29990 ft 429 kts 216°
2026-04-27 07:58 -5.83578 112.95713 29991 ft 430 kts 216°
2026-04-27 07:58 -5.88668 112.92606 29987 ft 427 kts 199°
2026-04-27 07:59 -5.94466 112.91250 29990 ft 425 kts 187°
2026-04-27 07:59 -6.03237 112.90068 29996 ft 425 kts 186°
2026-04-27 08:00 -6.09108 112.89255 30005 ft 426 kts 186°
2026-04-27 08:00 -6.14782 112.87611 29739 ft 424 kts 206°
2026-04-27 08:01 -6.17364 112.86122 29214 ft 423 kts 211°
2026-04-27 08:01 -6.19810 112.84511 28744 ft 420 kts 213°
2026-04-27 08:01 -6.22222 112.82855 28270 ft 417 kts 213°
2026-04-27 08:01 -6.24583 112.81229 27843 ft 414 kts 213°
2026-04-27 08:02 -6.26963 112.79608 27388 ft 411 kts 212°
2026-04-27 08:02 -6.29317 112.78029 26947 ft 408 kts 212°
2026-04-27 08:02 -6.31675 112.76469 26524 ft 405 kts 212°
2026-04-27 08:02 -6.34022 112.74933 26109 ft 401 kts 211°
2026-04-27 08:03 -6.36366 112.73412 25676 ft 398 kts 211°
2026-04-27 08:03 -6.38691 112.71913 25231 ft 395 kts 211°
2026-04-27 08:03 -6.41021 112.70416 24785 ft 393 kts 211°
2026-04-27 08:03 -6.43310 112.68947 24329 ft 391 kts 211°
2026-04-27 08:04 -6.45605 112.67477 23676 ft 389 kts 211°
2026-04-27 08:04 -6.47849 112.66041 23077 ft 382 kts 211°
2026-04-27 08:04 -6.50066 112.64622 22469 ft 374 kts 211°
2026-04-27 08:04 -6.52259 112.63218 21867 ft 369 kts 211°
2026-04-27 08:05 -6.54408 112.61842 21271 ft 365 kts 210°
2026-04-27 08:05 -6.56550 112.60472 20670 ft 361 kts 211°
2026-04-27 08:05 -6.58659 112.59122 20072 ft 359 kts 211°
2026-04-27 08:05 -6.60742 112.57790 19474 ft 355 kts 211°
2026-04-27 08:06 -6.62800 112.56472 18874 ft 351 kts 211°
2026-04-27 08:06 -6.64874 112.55151 18264 ft 346 kts 209°
2026-04-27 08:06 -6.67049 112.54311 17893 ft 335 kts 185°
2026-04-27 08:06 -6.69372 112.54422 17666 ft 336 kts 163°
2026-04-27 08:07 -6.71526 112.55324 17434 ft 333 kts 146°
2026-04-27 08:07 -6.73345 112.56765 17203 ft 331 kts 134°
2026-04-27 08:07 -6.74811 112.58516 17015 ft 328 kts 120°
2026-04-27 08:07 -6.75685 112.60631 17026 ft 327 kts 106°
2026-04-27 08:08 -6.76280 112.62859 16993 ft 330 kts 104°
2026-04-27 08:08 -6.76824 112.65063 16997 ft 325 kts 104°
2026-04-27 08:08 -6.77382 112.67276 17001 ft 328 kts 104°
2026-04-27 08:08 -6.77963 112.69488 17000 ft 328 kts 105°
2026-04-27 08:09 -6.78556 112.71680 16987 ft 327 kts 105°
2026-04-27 08:09 -6.79137 112.73914 16754 ft 328 kts 104°
2026-04-27 08:09 -6.79678 112.76127 16524 ft 324 kts 104°
2026-04-27 08:09 -6.80205 112.78325 16292 ft 323 kts 104°
2026-04-27 08:10 -6.80729 112.80509 16065 ft 322 kts 104°
2026-04-27 08:10 -6.81257 112.82684 15836 ft 322 kts 104°
2026-04-27 08:10 -6.81790 112.84866 15603 ft 318 kts 104°
2026-04-27 08:10 -6.82322 112.87030 15371 ft 318 kts 104°
2026-04-27 08:11 -6.82847 112.89164 15136 ft 316 kts 104°
2026-04-27 08:11 -6.83375 112.91310 14905 ft 314 kts 104°
2026-04-27 08:11 -6.83902 112.93452 14670 ft 313 kts 104°
2026-04-27 08:11 -6.84421 112.95563 14437 ft 312 kts 104°
2026-04-27 08:12 -6.84941 112.97679 14205 ft 310 kts 104°
2026-04-27 08:12 -6.85453 112.99762 13977 ft 308 kts 104°
2026-04-27 08:12 -6.85966 113.01849 13745 ft 308 kts 104°
2026-04-27 08:12 -6.86476 113.03925 13508 ft 305 kts 104°
2026-04-27 08:13 -6.86986 113.06004 13275 ft 305 kts 104°
2026-04-27 08:13 -6.87492 113.08067 13038 ft 302 kts 104°
2026-04-27 08:13 -6.87995 113.10116 12802 ft 301 kts 104°
2026-04-27 08:13 -6.88497 113.12161 12566 ft 302 kts 104°
2026-04-27 08:14 -6.88997 113.14200 12329 ft 300 kts 104°
2026-04-27 08:14 -6.89494 113.16225 12093 ft 297 kts 104°
2026-04-27 08:14 -6.89989 113.18246 11856 ft 296 kts 104°
2026-04-27 08:14 -6.90485 113.20263 11622 ft 295 kts 104°
2026-04-27 08:15 -6.90968 113.22232 11388 ft 294 kts 104°
2026-04-27 08:15 -6.91457 113.24228 11153 ft 294 kts 104°
2026-04-27 08:15 -6.91954 113.26235 10909 ft 292 kts 105°
2026-04-27 08:15 -6.92652 113.28155 10666 ft 290 kts 118°
2026-04-27 08:16 -6.93924 113.29678 10426 ft 290 kts 142°
2026-04-27 08:16 -6.95736 113.30602 10200 ft 293 kts 161°
2026-04-27 08:16 -6.97750 113.30950 10030 ft 289 kts 175°
2026-04-27 08:16 -6.99726 113.30797 10018 ft 280 kts 187°
2026-04-27 08:17 -7.01639 113.30377 10038 ft 283 kts 190°
2026-04-27 08:17 -7.03560 113.29899 10022 ft 282 kts 191°
2026-04-27 08:17 -7.05481 113.29438 10006 ft 282 kts 189°
2026-04-27 08:17 -7.07387 113.29009 10027 ft 282 kts 189°
2026-04-27 08:18 -7.09336 113.28586 10042 ft 284 kts 189°
2026-04-27 08:18 -7.11255 113.28173 10002 ft 280 kts 189°
2026-04-27 08:18 -7.13138 113.27767 9895 ft 270 kts 189°
2026-04-27 08:18 -7.14986 113.27371 9661 ft 270 kts 189°
2026-04-27 08:19 -7.16824 113.26978 9418 ft 270 kts 188°
2026-04-27 08:19 -7.18678 113.26580 9170 ft 267 kts 189°
2026-04-27 08:19 -7.20496 113.26190 8941 ft 267 kts 189°
2026-04-27 08:19 -7.22305 113.25801 8695 ft 267 kts 189°
2026-04-27 08:20 -7.24146 113.25406 8445 ft 266 kts 189°
2026-04-27 08:20 -7.25951 113.25017 8218 ft 265 kts 189°
2026-04-27 08:20 -7.27771 113.24626 7984 ft 265 kts 189°
2026-04-27 08:20 -7.29570 113.24240 7748 ft 264 kts 189°
2026-04-27 08:21 -7.31355 113.23857 7508 ft 264 kts 190°
2026-04-27 08:21 -7.33169 113.23467 7268 ft 263 kts 190°
2026-04-27 08:21 -7.34957 113.23083 7037 ft 262 kts 190°
2026-04-27 08:21 -7.36747 113.22699 6802 ft 262 kts 190°
2026-04-27 08:22 -7.38644 113.22295 6648 ft 291 kts 190°
2026-04-27 08:22 -7.40647 113.21865 6270 ft 291 kts 191°
2026-04-27 08:22 -7.42591 113.21407 5973 ft 279 kts 195°
2026-04-27 08:22 -7.44352 113.20625 5666 ft 273 kts 214°
2026-04-27 08:23 -7.45572 113.19185 5330 ft 274 kts 246°
2026-04-27 08:23 -7.45941 113.17326 5009 ft 272 kts 273°
2026-04-27 08:23 -7.45624 113.15471 4699 ft 270 kts 284°
2026-04-27 08:23 -7.45195 113.13628 4370 ft 270 kts 283°
2026-04-27 08:24 -7.44790 113.11784 4059 ft 269 kts 283°
2026-04-27 08:24 -7.44403 113.09943 3855 ft 264 kts 283°
2026-04-27 08:24 -7.44033 113.08179 3788 ft 254 kts 283°
2026-04-27 08:24 -7.43672 113.06474 3714 ft 244 kts 283°
2026-04-27 08:25 -7.43320 113.04836 3635 ft 235 kts 284°
2026-04-27 08:25 -7.42969 113.03253 3551 ft 227 kts 286°
2026-04-27 08:25 -7.42510 113.01750 3527 ft 225 kts 291°
2026-04-27 08:25 -7.41971 113.00269 3483 ft 227 kts 291°
2026-04-27 08:26 -7.41412 112.98747 3064 ft 235 kts 291°
2026-04-27 08:26 -7.40944 112.97211 2815 ft 223 kts 284°
2026-04-27 08:26 -7.40681 112.95715 2670 ft 208 kts 280°
2026-04-27 08:26 -7.40482 112.94316 2517 ft 196 kts 280°
2026-04-27 08:27 -7.40281 112.92994 2329 ft 188 kts 282°
2026-04-27 08:27 -7.40080 112.91738 2191 ft 171 kts 282°
2026-04-27 08:27 -7.39893 112.90588 2050 ft 165 kts 282°
2026-04-27 08:27 -7.39708 112.89462 1873 ft 164 kts 282°
2026-04-27 08:28 -7.39523 112.88341 1620 ft 160 kts 282°
2026-04-27 08:28 -7.39347 112.87239 1410 ft 158 kts 282°
2026-04-27 08:28 -7.39178 112.86168 1217 ft 156 kts 282°
2026-04-27 08:28 -7.39003 112.85103 1011 ft 151 kts 282°
2026-04-27 08:29 -7.38834 112.84066 823 ft 147 kts 282°
2026-04-27 08:29 -7.38677 112.83031 661 ft 154 kts 279°
2026-04-27 08:29 -7.38539 112.82004 391 ft 144 kts 281°
2026-04-27 08:29 -7.38378 112.81039 210 ft 138 kts 281°
2026-04-27 08:30 -7.38210 112.80078 63 ft 137 kts 281°
2026-04-27 08:30 -7.38069 112.79230 8 ft 98 kts 280°
2026-04-27 08:30 -7.37989 112.78728 11 ft 37 kts 278°
2026-04-27 08:30 -7.37953 112.78495 11 ft 39 kts 280°
2026-04-27 08:31 -7.37907 112.78249 11 ft 21 kts 286°
2026-04-27 08:31 -7.37836 112.78118 11 ft 20 kts 306°
2026-04-27 08:31 -7.37768 112.78036 11 ft 12 kts 324°
2026-04-27 08:31 -7.37709 112.78056 11 ft 10 kts 83°
2026-04-27 08:32 -7.37719 112.78129 11 ft 10 kts 99°
2026-04-27 08:32 -7.37731 112.78205 11 ft 11 kts 98°
2026-04-27 08:32 -7.37744 112.78290 11 ft 13 kts 98°
2026-04-27 08:32 -7.37759 112.78387 11 ft 14 kts 99°
2026-04-27 08:33 -7.37777 112.78490 11 ft 15 kts 100°
2026-04-27 08:33 -7.37796 112.78604 11 ft 17 kts 98°
2026-04-27 08:33 -7.37814 112.78728 11 ft 18 kts 98°
2026-04-27 08:33 -7.37831 112.78856 11 ft 17 kts 99°
2026-04-27 08:34 -7.37859 112.78986 8 ft 18 kts 99°
2026-04-27 08:34 -7.37825 112.79070 8 ft 12 kts 22°
2026-04-27 08:34 -7.37731 112.79087 8 ft 13 kts 10°
2026-04-27 08:34 -7.37655 112.79102 8 ft 9 kts 22°
2026-04-27 08:35 -7.37632 112.79155 8 ft 8 kts 96°
2026-04-27 08:35 -7.37617 112.79174 8 ft 2 kts 18°
2026-04-27 08:35 -7.37594 112.79178 8 ft 3 kts 10°
2026-04-27 08:35 -7.37565 112.79182 8 ft 4 kts
2026-04-27 08:36 -7.37545 112.79185 8 ft 1 kts
2026-04-27 08:36 -7.37542 112.79186 8 ft 0 kts